TimeCST,TemperatureF,Dew PointF,Humidity,Sea Level PressureIn,VisibilityMPH,Wind Direction,Wind SpeedMPH,Gust SpeedMPH,PrecipitationIn,Events,Conditions,WindDirDegrees,DateUTC
12:46 AM,26.6,24.8,93,30.00,7.0,NNW,9.2,-,N/A,,Scattered Clouds,340,2012-12-08 06:46:00
12:54 AM,28.0,25.0,88,30.02,6.0,North,10.4,-,N/A,,Mostly Cloudy,350,2012-12-08 06:54:00
1:02 AM,28.4,26.6,93,29.99,6.0,NNW,8.1,-,N/A,,Scattered Clouds,340,2012-12-08 07:02:00
1:54 AM,27.0,26.1,96,30.03,5.0,Calm,Calm,-,N/A,,Clear,0,2012-12-08 07:54:00
2:38 AM,21.2,19.4,93,30.01,5.0,NNW,3.5,-,N/A,,Scattered Clouds,340,2012-12-08 08:38:00
2:46 AM,21.2,21.2,100,30.00,4.0,NW,3.5,-,N/A,,Mostly Cloudy,320,2012-12-08 08:46:00
2:54 AM,23.0,21.0,92,30.04,5.0,Calm,Calm,-,N/A,,Scattered Clouds,0,2012-12-08 08:54:00
3:07 AM,21.2,19.4,93,30.00,1.2,Calm,Calm,-,N/A,,Partly Cloudy,0,2012-12-08 09:07:00
3:09 AM,19.4,19.4,100,30.00,0.8,Calm,Calm,-,N/A,,Mist,0,2012-12-08 09:09:00
3:15 AM,19.4,19.4,100,30.01,0.2,Calm,Calm,-,N/A,Fog,Light Freezing Fog,0,2012-12-08 09:15:00
3:30 AM,19.4,17.6,93,30.01,0.5,Calm,Calm,-,N/A,Fog,Light Freezing Fog,0,2012-12-08 09:30:00
3:36 AM,21.2,19.4,93,30.00,1.2,Calm,Calm,-,N/A,,Scattered Clouds,0,2012-12-08 09:36:00
3:41 AM,21.2,19.4,93,30.00,0.8,Calm,Calm,-,N/A,,Mist,0,2012-12-08 09:41:00
3:49 AM,21.2,21.2,100,30.00,1.2,Calm,Calm,-,N/A,,Scattered Clouds,0,2012-12-08 09:49:00
3:54 AM,23.0,21.9,96,30.04,2.5,Calm,Calm,-,N/A,,Scattered Clouds,0,2012-12-08 09:54:00
3:57 AM,24.8,23.0,93,30.01,3.0,Calm,Calm,-,N/A,,Mostly Cloudy,0,2012-12-08 09:57:00
4:54 AM,28.0,26.1,92,30.03,5.0,North,4.6,-,N/A,,Overcast,350,2012-12-08 10:54:00
5:54 AM,30.0,28.0,92,30.03,5.0,NNE,5.8,-,N/A,,Overcast,20,2012-12-08 11:54:00
6:54 AM,30.0,28.0,92,30.04,6.0,NE,4.6,-,N/A,,Overcast,50,2012-12-08 12:54:00
7:54 AM,30.0,27.0,88,30.04,6.0,NE,3.5,-,N/A,,Overcast,50,2012-12-08 13:54:00
8:54 AM,30.9,27.0,85,30.04,5.0,NE,6.9,-,N/A,,Overcast,40,2012-12-08 14:54:00
9:54 AM,32.0,28.0,85,30.05,5.0,East,5.8,-,N/A,,Overcast,100,2012-12-08 15:54:00
10:54 AM,33.1,28.0,82,30.05,4.0,SE,5.8,-,N/A,,Haze,130,2012-12-08 16:54:00
11:54 AM,34.0,28.0,79,30.01,4.0,SE,5.8,-,N/A,,Haze,140,2012-12-08 17:54:00
12:54 PM,36.0,28.9,76,29.97,5.0,SE,6.9,-,N/A,,Haze,130,2012-12-08 18:54:00
1:54 PM,39.0,28.0,65,29.94,6.0,SE,9.2,-,N/A,,Haze,130,2012-12-08 19:54:00
2:54 PM,39.9,28.0,63,29.91,7.0,SE,10.4,-,N/A,,Overcast,130,2012-12-08 20:54:00
3:54 PM,39.9,28.9,65,29.90,6.0,SSE,10.4,-,N/A,,Haze,150,2012-12-08 21:54:00
4:54 PM,39.0,28.9,67,29.90,6.0,SSE,12.7,-,N/A,,Haze,150,2012-12-08 22:54:00
5:54 PM,37.9,28.9,70,29.91,8.0,SSE,9.2,-,N/A,,Overcast,150,2012-12-08 23:54:00
6:54 PM,37.0,28.9,73,29.92,8.0,SE,6.9,-,N/A,,Overcast,140,2012-12-09 00:54:00
7:54 PM,33.1,28.0,82,29.90,7.0,ESE,6.9,-,N/A,,Clear,120,2012-12-09 01:54:00
8:54 PM,33.1,28.0,82,29.90,7.0,SE,5.8,-,N/A,,Partly Cloudy,140,2012-12-09 02:54:00
9:54 PM,34.0,28.0,79,29.93,7.0,Calm,Calm,-,N/A,,Overcast,0,2012-12-09 03:54:00
10:54 PM,30.9,28.0,89,29.91,6.0,Calm,Calm,-,N/A,,Clear,0,2012-12-09 04:54:00
11:32 PM,33.8,28.4,81,29.87,6.0,Calm,Calm,-,N/A,,Overcast,0,2012-12-09 05:32:00
11:54 PM,32.0,28.9,88,29.90,6.0,South,4.6,-,N/A,,Mostly Cloudy,180,2012-12-09 05:54:00